GFSFLT2_850_temp_246.txt.gz
Temp
19 19 19 19 19 19 19 19 19 19 19 19 19 19 18 18 18 18 18 17 17 17 17 17 16 16 16 16 16 16 16 16
19 19 19 19 19 19 19 19 19 18 18 18 18 18 18 18 18 18 17 17 17 17 17 16 16 16 16 16 16 16 16 16
19 20 20 19 19 19 19 18 19 18 18 18 18 18 18 18 17 17 17 17 17 17 16 16 16 16 15 15 15 15 15 15
19 20 20 20 19 19 19 19 19 18 18 18 18 17 17 17 17 17 17 17 17 16 16 16 15 15 15 15 15 15 15 15
21 20 20 20 20 19 19 19 18 18 18 17 17 17 17 17 17 17 17 17 16 16 16 15 15 15 15 14 14 15 15 14
22 21 21 20 20 20 20 19 19 18 18 17 17 17 17 17 17 17 17 16 16 16 16 15 14 14 14 14 15 15 14 15
23 22 22 21 20 20 20 19 19 18 18 17 17 17 17 17 17 16 16 16 16 16 15 15 14 14 14 14 14 14 14 15
23 22 21 22 22 21 21 20 19 18 18 17 17 17 17 16 16 16 16 16 16 15 15 14 14 14 14 14 14 14 14 14
23 22 21 21 22 22 21 20 19 18 18 18 17 17 17 16 16 16 16 15 15 15 14 14 14 14 14 14 14 14 14 14
23 22 22 22 22 21 21 21 20 19 18 18 17 17 16 16 16 16 16 15 15 14 14 14 14 14 14 14 14 14 14 15
24 23 22 22 21 20 21 21 20 19 18 18 17 17 16 16 16 16 15 15 15 14 14 14 14 14 13 13 13 13 14 14
23 23 23 22 21 20 20 21 20 19 19 18 18 17 17 16 16 16 15 15 14 14 13 14 14 13 13 13 13 13 13 14
23 23 23 22 21 21 20 21 21 20 19 19 18 17 17 16 16 16 15 15 14 14 13 13 13 13 13 13 13 12 13 14
23 23 23 23 23 22 21 21 21 21 20 20 19 18 17 16 16 15 15 14 14 14 13 13 13 13 13 13 12 11 12 13
26 25 24 24 23 21 20 20 20 20 20 20 20 18 17 16 16 15 15 15 14 14 14 14 14 14 13 12 11 9 10 11
27 26 25 23 22 21 21 21 21 22 21 20 20 19 18 17 16 16 16 16 16 15 15 14 14 13 13 11 9 9 8 9
26 25 24 24 22 21 20 20 20 20 20 20 19 19 18 18 17 17 16 15 15 15 14 14 14 13 12 11 11 9 8 10
24 24 23 22 21 20 21 20 19 20 19 19 19 19 18 17 17 16 16 15 15 15 14 14 14 13 11 11 9 10 10 8
24 24 24 23 22 22 21 20 19 19 19 19 19 18 18 18 16 16 16 15 14 14 14 14 13 12 10 9 9 11 8 8
24 24 24 23 22 22 21 20 20 20 19 19 19 19 18 17 16 15 15 15 14 14 13 13 13 11 11 11 10 9 7 7

GFSFLT2_850_temp_249.txt.gz
Temp
19 19 19 19 19 19 19 19 19 19 19 19 19 18 18 18 18 17 17 17 17 17 17 17 17 17 16 16 16 16 16 16
20 19 19 19 19 18 19 19 19 19 19 19 18 18 18 17 17 17 17 17 17 17 17 16 16 16 16 16 16 16 16 16
19 19 19 19 19 19 19 19 19 19 18 18 18 18 18 17 17 17 17 17 17 17 17 16 16 16 16 16 16 15 16 16
19 19 19 19 19 19 19 19 19 19 18 18 18 18 17 17 17 17 17 17 17 17 17 16 16 16 16 15 15 15 16 15
20 20 20 20 19 19 19 19 19 19 18 18 18 17 17 17 17 17 17 16 16 16 16 16 16 16 15 15 15 15 15 15
22 21 20 20 20 20 19 19 19 19 19 18 18 18 17 17 17 17 17 16 16 16 16 16 15 15 15 15 15 15 15 15
22 22 21 21 20 20 20 20 19 19 19 18 18 18 17 17 17 16 16 16 16 16 15 15 15 15 14 14 14 14 14 14
23 22 22 21 20 20 20 19 19 19 19 18 18 18 17 17 17 16 16 16 16 15 15 15 14 14 14 14 14 14 14 14
23 23 22 22 21 21 20 20 19 19 19 18 18 17 17 17 17 16 16 16 15 15 15 15 14 14 14 14 14 14 14 14
23 23 23 22 22 21 20 20 19 19 18 18 18 18 17 17 17 16 16 16 15 15 15 14 14 14 14 14 14 13 14 14
24 24 23 23 22 22 21 20 20 19 19 18 18 18 17 17 16 16 16 15 15 14 14 14 14 14 14 14 14 13 13 13
24 23 24 23 22 21 21 20 20 20 20 19 19 18 17 17 16 16 15 15 15 15 14 14 14 14 14 13 13 13 13 13
24 23 23 23 23 23 22 22 21 21 21 21 20 19 18 17 16 16 15 15 15 15 14 14 14 14 13 13 13 13 12 12
24 24 22 23 23 23 23 22 22 22 21 21 21 20 19 19 17 16 16 16 15 15 15 14 14 13 13 13 13 12 12 12
26 26 24 23 22 22 22 21 21 21 22 21 21 21 20 19 18 17 16 16 16 15 15 15 14 14 14 13 12 12 11 11
24 23 23 22 21 22 22 22 22 23 22 21 21 21 21 19 18 18 17 16 16 16 15 15 15 14 13 13 13 12 10 9
23 23 22 22 21 21 21 21 22 21 21 21 20 20 20 19 18 18 17 17 16 16 15 15 15 15 13 13 12 12 11 10
24 24 23 23 22 21 21 21 20 20 20 20 20 19 18 19 19 18 17 16 16 16 16 15 15 15 14 13 12 12 11 9
24 24 24 23 22 22 22 21 20 20 19 19 18 18 18 19 19 17 16 16 15 15 15 15 14 14 14 13 13 12 11 10
23 23 23 23 23 24 23 22 21 20 20 20 19 19 19 18 19 17 16 15 14 15 15 14 14 13 13 13 12 11 10 9

GFSFLT2_850_temp_252.txt.gz
Temp
20 19 19 19 19 19 19 19 19 19 19 19 19 18 18 18 18 18 18 18 17 17 17 17 17 17 17 17 17 17 16 15
20 19 19 19 18 18 19 19 19 19 19 19 19 18 18 18 18 18 18 17 17 17 17 17 17 17 17 16 16 16 16 15
19 19 19 18 18 18 18 18 18 18 18 19 18 18 18 18 18 18 17 17 17 17 17 16 16 16 16 16 16 15 14 14
18 18 18 18 17 18 18 18 18 18 18 18 18 18 18 17 18 17 17 17 17 16 16 16 16 15 15 16 15 14 14 14
17 19 19 19 16 16 16 16 17 17 18 18 18 18 18 17 17 17 17 16 16 16 16 16 14 15 15 14 14 14 14 14
19 18 19 19 17 16 16 16 15 15 17 18 17 18 18 17 16 15 16 14 15 14 14 16 15 16 15 15 15 14 14 14
20 20 21 20 19 16 16 16 16 15 16 18 18 17 17 17 16 16 15 14 14 14 14 14 15 15 14 15 13 13 13 14
23 22 22 21 21 20 17 16 16 17 16 17 18 18 17 16 17 16 15 14 14 14 14 14 14 14 13 13 13 13 13 13
22 23 23 22 22 20 19 17 17 15 16 17 18 18 18 17 16 15 14 14 15 14 14 13 14 14 14 14 13 13 14 13
19 22 23 22 22 21 20 19 18 17 17 17 18 18 18 17 16 15 14 15 14 14 14 14 14 14 14 14 14 14 13 13
20 22 24 24 23 21 21 20 20 19 18 17 18 19 18 18 16 15 15 14 14 14 14 14 14 14 14 14 14 13 13 13
20 20 24 23 22 22 20 20 21 20 19 18 18 19 19 18 17 15 15 14 14 14 14 14 14 14 14 14 13 13 13 13
20 19 21 22 22 22 21 22 20 20 21 20 19 19 19 19 17 15 14 14 14 14 14 14 14 14 14 13 13 13 13 13
20 20 19 18 18 19 19 18 18 18 18 20 21 21 20 19 19 17 15 14 14 14 14 13 13 14 14 13 13 13 13 13
21 20 19 18 17 17 17 18 18 18 18 18 20 20 20 20 19 19 18 17 16 17 15 14 14 14 14 13 13 13 12 12
23 20 20 18 17 17 17 18 18 18 18 17 16 17 19 19 19 19 19 17 18 18 17 16 14 14 14 14 14 13 12 11
22 20 20 19 17 18 17 17 17 18 18 17 16 15 17 19 19 19 19 18 18 17 16 16 15 14 14 14 13 13 13 12
23 22 20 20 18 19 20 19 17 17 17 17 16 15 17 18 18 18 18 17 18 17 17 16 15 14 14 14 13 13 13 12
23 23 23 23 22 21 21 21 19 19 17 16 16 16 16 16 17 17 18 18 17 17 16 16 15 14 14 14 13 13 12 12
23 23 23 23 22 22 22 21 20 19 17 17 16 16 16 15 16 18 18 18 17 17 15 15 14 14 14 13 13 13 13 12

GFSFLT2_850_temp_255.txt.gz
Temp
20 20 19 19 19 19 19 19 19 19 19 19 19 19 19 19 19 19 18 18 18 18 17 17 17 17 17 17 17 17 17 16
20 20 19 19 19 18 18 19 19 19 19 19 19 18 19 19 18 18 18 18 17 17 17 17 17 17 17 17 17 17 17 16
17 19 20 20 19 19 18 18 18 18 18 18 18 18 18 18 18 18 18 18 17 17 17 17 17 17 17 16 16 17 15 16
18 18 17 18 17 17 18 18 18 18 18 18 18 18 16 16 18 18 17 17 17 17 17 17 17 16 16 16 16 16 16 16
20 18 18 17 17 17 16 16 17 17 17 17 18 15 15 16 15 17 17 17 17 17 17 17 16 15 16 16 15 16 15 17
21 20 18 17 18 18 18 17 16 16 16 18 17 17 15 15 15 15 16 15 17 15 15 15 14 15 15 16 15 15 16 16
21 21 18 17 18 18 18 18 18 17 16 15 15 15 16 15 16 16 16 16 16 15 16 16 15 15 15 14 15 15 15 15
22 21 19 17 17 18 18 18 18 17 17 16 16 15 16 16 15 16 16 16 16 16 16 16 16 15 15 15 15 15 15 15
22 20 19 18 17 17 17 18 17 18 17 17 16 16 15 15 16 16 16 16 16 16 16 16 16 16 16 16 15 14 15 15
24 21 19 19 20 19 18 18 17 17 17 17 16 15 16 15 15 16 16 16 16 15 16 16 16 16 16 16 16 15 15 15
24 21 20 19 20 18 19 18 17 18 17 17 17 16 16 17 15 16 16 16 16 16 16 16 16 16 16 16 16 16 16 15
24 22 20 19 17 18 17 17 18 17 17 17 17 16 16 16 17 15 15 15 15 15 15 16 16 15 15 15 16 15 15 15
25 23 21 19 18 17 17 18 18 18 17 17 17 17 16 17 16 15 15 15 15 15 15 15 15 15 14 14 14 14 14 14
25 23 21 19 18 18 18 18 19 19 18 18 17 17 17 16 17 16 16 15 15 15 15 15 15 14 14 14 14 14 14 14
24 24 22 20 19 19 18 18 19 19 19 19 18 17 16 16 16 17 16 16 16 16 16 15 15 15 15 14 14 13 14 14
23 23 22 21 20 19 19 19 19 19 19 20 19 18 17 16 16 16 16 16 16 16 16 16 15 15 14 14 14 14 13 12
21 21 23 22 21 19 18 18 18 19 19 19 19 19 18 17 16 16 15 15 16 15 15 16 15 15 15 14 15 15 14 13
20 20 21 21 20 19 18 18 18 18 18 18 18 18 18 17 16 15 15 15 15 15 15 15 15 15 14 14 13 13 14 13
20 20 20 19 19 18 18 18 18 18 17 17 17 18 18 17 16 15 15 15 15 15 15 15 15 14 15 14 14 14 14 14
20 21 21 20 19 18 18 17 17 17 17 17 17 17 17 17 17 16 15 15 15 15 15 15 15 15 15 15 14 14 14 13

GFSFLT2_850_temp_258.txt.gz
Temp
21 21 21 20 20 20 20 20 19 19 19 19 19 19 19 19 19 19 19 19 19 18 18 18 18 18 18 17 17 18 18 17
20 20 21 20 20 19 19 19 19 19 19 19 19 19 19 19 19 19 19 19 19 19 18 18 18 18 18 17 17 17 17 17
21 20 20 20 20 19 19 19 19 19 19 19 19 19 19 19 19 19 18 18 18 18 18 18 18 17 17 17 17 17 17 16
19 20 20 20 19 19 19 19 18 18 18 18 18 18 18 18 19 18 18 18 18 18 18 18 18 17 17 17 17 17 16 16
19 19 19 20 19 18 19 19 18 18 18 18 18 18 18 18 17 18 18 18 18 18 18 18 17 17 17 16 16 16 16 16
20 19 18 18 19 17 18 18 19 19 19 18 18 18 18 16 16 17 17 17 18 17 17 17 17 17 16 15 15 16 16 16
21 21 20 18 18 18 18 18 18 18 18 18 18 17 17 16 16 16 16 16 17 16 16 15 16 15 15 15 16 15 16 16
23 21 21 20 19 18 18 18 18 18 17 17 17 17 16 16 16 16 16 16 16 16 16 16 16 15 15 15 15 15 15 15
25 23 21 21 20 19 18 18 18 18 18 17 17 17 17 16 16 16 16 16 16 16 16 16 16 16 16 16 16 16 15 15
26 24 22 21 20 20 19 18 18 18 18 18 17 17 17 17 15 16 16 16 16 16 16 16 16 16 16 16 16 16 15 15
26 25 25 22 20 20 19 19 18 18 18 18 17 17 17 17 17 16 16 16 16 16 16 16 16 16 16 16 16 16 16 16
27 26 25 24 22 19 18 17 18 18 17 18 17 17 17 17 17 17 16 16 16 16 16 16 16 16 16 16 16 16 16 16
26 25 24 23 22 20 19 18 18 18 18 18 18 17 17 17 17 17 16 16 16 16 16 16 16 16 16 16 15 15 16 16
27 25 25 24 22 21 20 19 18 18 18 18 18 17 17 17 17 17 17 17 16 16 16 16 16 16 16 15 15 15 15 15
26 25 24 24 22 20 19 17 18 18 18 18 18 18 18 17 17 17 17 16 16 16 16 16 16 15 15 15 14 14 15 15
25 25 24 23 22 20 19 18 18 18 18 19 19 18 18 18 18 17 17 16 16 15 15 15 15 15 15 14 15 15 15 14
24 24 24 23 22 21 20 19 19 18 18 19 19 19 19 19 18 18 17 16 16 15 15 15 15 15 15 15 15 15 14 14
20 22 23 23 22 21 20 19 19 18 18 18 19 19 19 19 18 18 17 16 16 16 15 15 15 15 15 15 14 15 17 15
22 22 22 22 21 20 20 19 18 18 18 18 17 18 18 18 18 18 17 17 16 16 16 15 15 15 15 15 15 15 14 14
21 21 21 20 20 19 19 18 17 17 17 17 17 17 17 17 17 17 17 17 17 16 15 15 14 14 14 14 15 15 14 14